Regional Weather Roundup
Issued by NWS

Home | Current Version | Previous Version | Graphics & Text | Print | Product List | Glossary On
Versions: 1 2 3 4 5 6 7 8 9 10 11 12 13 14 15 16 17 18 19 20 21 22 23 24 25 26 27 28 29 30 31 32 33 34 35 36 37 38 39 40 41 42 43 44 45 46 47 48 49 50
000
ASUS43 KLMK 281310
RWRKY
KENTUCKY REGIONAL WEATHER ROUNDUP
NATIONAL WEATHER SERVICE LOUISVILLE KY
900 AM EDT THU MAY 28 2015

NOTE "FAIR" INDICATES FEW OR NO CLOUDS BELOW 12,000 FEET
WITH NO SIGNIFICANT WEATHER AND/OR OBSTRUCTIONS TO VISIBILITY.

KYZ001>023-026-027-061>063-070>075-281400-
WESTERN AND SOUTH CENTRAL KENTUCKY

CITY           SKY/WX    TMP DP  RH WIND       PRES   REMARKS
PADUCAH        MOSUNNY   70  67  90 CALM      30.18R
HENDERSON      MOSUNNY   68  66  94 S6        30.18R
OWENSBORO      PTSUNNY   70  68  93 S5        30.20R FOG
HOPKINSVILLE   CLOUDY    67  66  96 SE7       30.21R
BOWLING GREEN  PTSUNNY   69  65  86 SE3       30.22R
GLASGOW        CLOUDY    67  66  97 SE3       30.22R
$$

KYZ024-025-028>034-038-045-046-053-281400-
NORTH CENTRAL KENTUCKY

CITY           SKY/WX    TMP DP  RH WIND       PRES   REMARKS
LOUISVILLE/SDF CLOUDY    69  66  90 SE3       30.20S FOG
LOUISVILLE/LOU CLOUDY    69  66  90 S3        30.21R FOG
FORT KNOX      FOG       64  64 100 CALM      30.19S VSB 1/2
$$

KYZ035>037-039>044-047>052-055>060-089>105-281400-
NORTHEAST KENTUCKY

CITY           SKY/WX    TMP DP  RH WIND       PRES   REMARKS
LEXINGTON      CLOUDY    67  64  90 NW5       30.23R FOG
COVINGTON      FOG       65  63  93 CALM      30.22R VSB 1/4
FRANKFORT      CLOUDY    65  63  93 CALM      30.21S FOG
$$

KYZ054-064>069-076>088-106>120-281400-
SOUTHEAST KENTUCKY

CITY           SKY/WX    TMP DP  RH WIND       PRES   REMARKS
JACKSON        MOSUNNY   69  62  78 CALM      30.25F
LONDON         CLOUDY    67  61  81 S3        30.26R
SOMERSET       CLOUDY    63  63 100 CALM      30.26S
MIDDLESBORO    CLOUDY    65  65 100 CALM      30.27S
MONTICELLO     CLOUDY    69  68  97 CALM      30.27S
$$




USA.gov is the U.S. government's official web portal to all federal, state and local government web resources and services.